カタログに戻る

METEOR 2-17 DEB

運用中PO
NORAD 28991·DEBRIS·🇷🇺 Russia

打ち上げ Jan 30, 1988 から Plesetsk Cosmodrome

Loading…

次のパス (今後24時間)

TLE

最新Source: Space-Track

元期: Sep 14, 2026, 11:01 UTC

1 28991U 88005F   26257.45909616  .00001018  00000-0  56245-3 0  9997
2 28991  82.5208 147.4201 0030106 354.7226 178.2731 14.10365538 78532

AllMySatでMETEOR 2-17 DEBをリアルタイム追跡

Download on the App Store